DELTA 1 DEB, 10865

Orbit data source: Space-Track

DELTA 1 DEB, 10865 is space debris in SSO originally from a launch on Thu, 29 Jul 1976 UTC launched from the Air Force Western Test Range (AFWTR). Debris objects in space refer to the collection of defunct objects orbiting the Earth. Examples of debris include non-operational satellites, rocket bodies, and fragments generated from explosions, collisions, or faulty payload assembly.

Loading next visibility...
Identifier
10865, 1976-077CT
Orbit
SSO
Country
Flag of USUS
Related business
Manufacturer
Unknown
Mission
Spacecraft
Bus & Motor
Unknown
Mass
Unknown
Launch date (UTC)
1976-07-29 (50 years ago)
Launch vehicle
Unknown
Launch site
Air Force Western Test Range (AFWTR)
Object type
Payload
Rocket body
Debris
Shape & HBR
Unknown shape, 0.1 m
Radar Cross Section
Small (<0.1 m²)

Expand to show TLE details & history
Last TLE update: 12 hours ago

TLE from 12 hours ago
0 DELTA 1 DEB
1 10865U 76077CT  26034.36428851 -.00000038  00000-0  56529-4 0  9992
2 10865 102.3813 343.1883 0111826  27.4722 124.9988 12.20357390206554
Epoch: 2026-02-03T08:44Z
TLE epoch observation values (Epoch: 2026-02-03T08:44:34.527Z)
Latitude
25.85742°
Longitude
-95.42389°
Altitude
1,645.552 km
Speed
7.029 km/s
True Right ascension
11h 17m 03s
True Declination
25° 44' 15"
Sunlit
Object was in full shadow at epoch
Visualization orbit readout
Latitude
Unknown
Longitude
Unknown
Altitude
Unknown
Speed
Unknown
Apparent Right ascension
Unknown
Apparent Declination
Unknown
Sunlit
N/A
Visualization observer readout
Local Sidereal Time
22:44:49
Azimuth
Unknown
Elevation
Unknown
Doppler factor
Unknown
Orbital elements
Apogee altitude
1,677.697 km
Perigee altitude
1,499.519 km
Semi-major axis
7,966.745 km
Eccentricity
0.01118
Inclination
102.3813°
RAAN
343.1883°
Arg. of periapsis
27.4722°
True anomaly
126.04009°
Mean anomaly
124.9988°
Eccentric anomaly
125.52028°
Mean motion
3.05226 °/min
Orbital period
117.95 mins
BSTAR
0.000056529
Loading maneuver chart data...
Computing Atmospheric mass density...

Documentation

Showing up to 5 results
|